Date String (YYYY-MM-DD hh:mm:ss) UTC,Instrument flags,Ambient pressure (hPa),Sample flow (lpm),Bypass flow (lpm),Sample temperature (°C),Ambient temperature (°C),ASC tube jacket temperature (°C),LED temperature (°C),Box temperature (°C),Sample RH (%),Span deviation,Mass concentration (μg/m³),Mass concentration (μg/m³),Mass concentration (μg/m³)
DateTimeUTC,F1_M11,P_M11,Q1_M11,Q2_M11,T1_M11,T2_M11,T3_M11,T4_M11,T5_M11,U1_M11,ZSPAN_M11,X0_M11,X2_M11,X1_M11
2022-10-29 06:00:00,,0829.6,4.98,0.00,26.2,24.4,00.0,35.2,27.8,09.2,0000.0,0004.78,0002.19,0001.90
2022-10-29 06:01:00,,0829.5,5.00,0.00,26.2,24.3,00.0,35.1,27.9,09.2,0000.0,0004.77,0002.23,0001.92
2022-10-29 06:02:00,,0829.6,5.00,0.00,26.2,24.3,00.0,35.1,27.9,09.2,0000.0,0004.91,0002.30,0001.97
2022-10-29 06:03:00,,0829.6,5.01,0.00,26.1,24.3,00.0,35.1,27.8,09.2,0000.0,0004.83,0002.31,0002.00
2022-10-29 06:04:00,,0829.6,5.00,0.00,26.1,24.3,00.0,35.1,27.8,09.0,0000.0,0004.77,0002.34,0002.04
2022-10-29 06:05:00,,0829.6,4.99,0.00,26.1,24.3,00.0,35.1,27.8,09.1,0000.0,0004.60,0002.33,0002.06
2022-10-29 06:06:00,,0829.6,5.00,0.00,26.1,24.3,00.0,35.1,27.8,09.0,0000.0,0004.49,0002.34,0002.09
2022-10-29 06:07:00,,0829.6,5.00,0.00,26.1,24.3,00.0,35.1,27.7,08.8,0000.0,0004.57,0002.36,0002.10
2022-10-29 06:08:00,,0829.6,5.00,0.00,26.1,24.3,00.0,35.1,27.8,08.9,0000.0,0004.61,0002.38,0002.11
2022-10-29 06:09:00,,0829.6,4.98,0.00,26.1,24.3,00.0,35.1,27.8,08.8,0000.0,0004.63,0002.39,0002.11
2022-10-29 06:10:00,,0829.6,5.00,0.00,26.1,24.3,00.0,35.0,27.7,08.6,0000.0,0004.54,0002.36,0002.10
2022-10-29 06:11:00,,0829.5,5.00,0.00,26.0,24.2,00.0,35.0,27.7,08.5,0000.0,0003.12,0002.33,0002.08
2022-10-29 06:12:00,,0829.5,5.00,0.00,26.0,24.2,00.0,35.0,27.7,08.5,0000.0,0003.00,0002.28,0002.04
2022-10-29 06:13:00,,0829.5,5.00,0.00,26.0,24.2,00.0,35.0,27.8,08.4,0000.0,0002.91,0002.18,0001.98
2022-10-29 06:14:00,,0829.5,5.00,0.00,26.0,24.2,00.0,35.0,27.7,08.3,0000.0,0003.56,0002.12,0001.93
2022-10-29 06:15:00,,0829.6,5.00,0.00,26.0,24.2,00.0,35.0,27.7,08.4,0000.0,0003.51,0002.07,0001.90
2022-10-29 06:16:00,,0829.5,5.01,0.00,26.0,24.2,00.0,35.0,27.8,08.5,0000.0,0003.46,0002.04,0001.88
2022-10-29 06:17:00,,0829.6,4.98,0.00,26.0,24.2,00.0,35.0,27.7,08.5,0000.0,0003.38,0001.99,0001.84
2022-10-29 06:18:00,,0829.5,5.00,0.00,26.0,24.2,00.0,35.0,27.7,08.5,0000.0,0003.24,0001.95,0001.83
2022-10-29 06:19:00,,0829.6,5.01,0.00,26.0,24.2,00.0,34.9,27.7,08.5,0000.0,0003.24,0001.94,0001.81
2022-10-29 06:20:00,,0829.5,5.00,0.00,26.0,24.2,00.0,34.9,27.7,08.4,0000.0,0003.31,0001.94,0001.80
2022-10-29 06:21:00,,0829.5,5.01,0.00,26.0,24.2,00.0,34.9,27.6,08.3,0000.0,0003.29,0001.93,0001.78
2022-10-29 06:22:00,,0829.5,5.01,0.00,25.9,24.2,00.0,34.9,27.7,08.3,0000.0,0003.24,0001.89,0001.75
2022-10-29 06:23:00,,0829.5,4.98,0.00,25.9,24.2,00.0,34.9,27.7,08.4,0000.0,0003.38,0001.89,0001.74
2022-10-29 06:24:00,,0829.5,5.01,0.00,25.9,24.2,00.0,34.9,27.7,08.5,0000.0,0003.43,0001.90,0001.75
2022-10-29 06:25:00,,0829.5,5.01,0.00,25.9,24.1,00.0,34.9,27.6,08.4,0000.0,0002.77,0001.92,0001.75
2022-10-29 06:26:00,,0829.5,4.99,0.00,25.9,24.1,00.0,34.9,27.6,08.4,0000.0,0002.61,0001.91,0001.74
2022-10-29 06:27:00,,0829.5,5.01,0.00,25.9,24.1,00.0,34.9,27.6,08.4,0000.0,0002.61,0001.89,0001.71
2022-10-29 06:28:00,,0829.5,5.01,0.00,25.9,24.1,00.0,34.8,27.6,08.4,0000.0,0002.58,0001.87,0001.68
2022-10-29 06:29:00,,0829.5,4.99,0.00,25.9,24.1,00.0,34.8,27.6,08.4,0000.0,0002.58,0001.87,0001.67
2022-10-29 06:30:00,,0829.5,5.01,0.00,25.9,24.1,00.0,34.8,27.7,08.4,0000.0,0002.54,0001.86,0001.67
2022-10-29 06:31:00,,0829.5,5.01,0.00,25.9,24.1,00.0,34.8,27.6,08.4,0000.0,0002.42,0001.82,0001.65
2022-10-29 06:32:00,,0829.6,4.98,0.00,25.8,24.1,00.0,34.8,27.5,08.4,0000.0,0002.38,0001.80,0001.63
2022-10-29 06:33:00,,0829.5,5.01,0.00,25.8,24.1,00.0,34.8,27.5,08.4,0000.0,0002.37,0001.79,0001.63
2022-10-29 06:34:00,,0829.6,5.01,0.00,25.8,24.1,00.0,34.8,27.6,08.4,0000.0,0002.20,0001.75,0001.61
2022-10-29 06:35:00,,0829.5,4.98,0.00,25.8,24.0,00.0,34.8,27.5,08.4,0000.0,0002.17,0001.73,0001.59
2022-10-29 06:36:00,,0829.5,5.00,0.00,25.8,24.0,00.0,34.8,27.5,08.5,0000.0,0002.12,0001.70,0001.56
2022-10-29 06:37:00,,0829.5,5.01,0.00,25.8,24.0,00.0,34.8,27.6,08.5,0000.0,0002.06,0001.67,0001.54
2022-10-29 06:38:00,,0829.5,5.01,0.00,25.8,24.0,00.0,34.7,27.5,08.4,0000.0,0002.03,0001.66,0001.55
2022-10-29 06:39:00,,0829.5,5.01,0.00,25.8,24.0,00.0,34.7,27.4,08.5,0000.0,0002.13,0001.69,0001.55
2022-10-29 06:40:00,,0829.5,4.98,0.00,25.8,24.0,00.0,34.7,27.5,08.5,0000.0,0002.23,0001.73,0001.56
2022-10-29 06:41:00,,0829.5,5.01,0.00,25.8,24.0,00.0,34.7,27.5,08.6,0000.0,0002.29,0001.75,0001.57
2022-10-29 06:42:00,,0829.5,5.01,0.00,25.7,24.0,00.0,34.7,27.5,08.6,0000.0,0002.38,0001.78,0001.57
2022-10-29 06:43:00,,0829.5,4.99,0.00,25.7,24.0,00.0,34.7,27.5,08.5,0000.0,0002.45,0001.81,0001.57
2022-10-29 06:44:00,,0829.5,5.01,0.00,25.7,23.9,00.0,34.7,27.4,08.4,0000.0,0002.49,0001.83,0001.59
2022-10-29 06:45:00,,0829.6,5.00,0.00,25.7,24.0,00.0,34.7,27.4,08.6,0000.0,0002.50,0001.85,0001.61
2022-10-29 06:46:00,,0829.6,4.99,0.00,25.7,23.9,00.0,34.7,27.4,08.6,0000.0,0002.48,0001.85,0001.63
2022-10-29 06:47:00,,0829.6,5.01,0.00,25.7,23.9,00.0,34.6,27.4,08.6,0000.0,0002.46,0001.85,0001.63
2022-10-29 06:48:00,,0829.5,4.98,0.00,25.7,23.9,00.0,34.6,27.4,08.6,0000.0,0002.51,0001.88,0001.65
2022-10-29 06:49:00,,0829.5,5.01,0.00,25.7,23.9,00.0,34.6,27.4,08.5,0000.0,0002.58,0001.91,0001.67
2022-10-29 06:50:00,,0829.5,5.01,0.00,25.6,23.9,00.0,34.6,27.3,08.6,0000.0,0002.58,0001.93,0001.69
2022-10-29 06:51:00,,0829.5,5.00,0.00,25.6,23.9,00.0,34.6,27.4,08.8,0000.0,0002.50,0001.92,0001.70
2022-10-29 06:52:00,,0829.5,4.99,0.00,25.6,23.9,00.0,34.6,27.4,08.9,0000.0,0002.44,0001.91,0001.72
2022-10-29 06:53:00,,0829.5,5.01,0.00,25.6,23.8,00.0,34.6,27.3,09.3,0000.0,0002.42,0001.92,0001.75
2022-10-29 06:54:00,,0829.5,4.98,0.00,25.6,23.8,00.0,34.6,27.3,09.1,0000.0,0002.41,0001.93,0001.78
2022-10-29 06:55:00,,0829.5,5.01,0.00,25.6,23.8,00.0,34.6,27.3,09.0,0000.0,0002.50,0001.97,0001.80
2022-10-29 06:56:00,,0829.5,5.01,0.00,25.6,23.8,00.0,34.5,27.3,09.0,0000.0,0002.71,0002.05,0001.82
2022-10-29 06:57:00,,0829.5,5.01,0.00,25.6,23.8,00.0,34.5,27.2,09.0,0000.0,0002.77,0002.11,0001.85
2022-10-29 06:58:00,,0829.5,4.98,0.00,25.6,23.8,00.0,34.5,27.3,09.0,0000.0,0002.84,0002.16,0001.90
2022-10-29 06:59:00,,0829.5,5.00,0.00,25.6,23.8,00.0,34.5,27.3,08.9,0000.0,0002.90,0002.21,0001.93
